TimeCST,TemperatureF,Dew PointF,Humidity,Sea Level PressureIn,VisibilityMPH,Wind Direction,Wind SpeedMPH,Gust SpeedMPH,PrecipitationIn,Events,Conditions,WindDirDegrees,DateUTC
12:00 AM,80.6,75.2,84,29.74,6.2,West,4.6,-,N/A,,Scattered Clouds,270,2013-09-14 06:00:00
1:00 AM,80.6,75.2,84,29.74,6.2,Calm,Calm,-,N/A,,Scattered Clouds,0,2013-09-14 07:00:00
2:00 AM,80.6,75.2,84,29.74,6.2,Calm,Calm,-,N/A,,Scattered Clouds,0,2013-09-14 08:00:00
3:00 AM,78.8,75.2,89,29.71,6.2,Calm,Calm,-,N/A,,Scattered Clouds,0,2013-09-14 09:00:00
4:00 AM,78.8,75.2,89,29.71,6.2,Calm,Calm,-,N/A,,Scattered Clouds,0,2013-09-14 10:00:00
5:00 AM,78.8,75.2,89,29.74,6.2,West,6.9,-,N/A,,Partly Cloudy,280,2013-09-14 11:00:00
6:00 AM,78.8,75.2,89,29.74,6.2,WNW,6.9,-,N/A,,Scattered Clouds,300,2013-09-14 12:00:00
7:00 AM,80.6,75.2,84,29.74,6.2,WNW,6.9,-,N/A,,Scattered Clouds,300,2013-09-14 13:00:00
8:00 AM,82.4,75.2,79,29.74,6.2,WNW,9.2,-,N/A,,Scattered Clouds,290,2013-09-14 14:00:00
9:00 AM,86.0,75.2,70,29.77,6.2,WNW,9.2,-,N/A,,Partly Cloudy,300,2013-09-14 15:00:00
10:00 AM,84.2,75.2,74,29.80,6.2,NW,4.6,-,N/A,,Scattered Clouds,310,2013-09-14 16:00:00
11:00 AM,86.0,77.0,74,29.77,6.2,WNW,6.9,-,N/A,,Partly Cloudy,300,2013-09-14 17:00:00
12:00 PM,87.8,75.2,66,29.74,5.6,WNW,9.2,-,N/A,Rain,Rain,300,2013-09-14 18:00:00
1:00 PM,84.2,77.0,79,29.71,6.2,WNW,9.2,-,N/A,Thunderstorm,Light Thunderstorm,300,2013-09-14 19:00:00
2:00 PM,87.8,75.2,66,29.71,6.2,West,11.5,-,N/A,,Scattered Clouds,260,2013-09-14 20:00:00
3:00 PM,87.8,73.4,62,29.68,6.2,WSW,11.5,-,N/A,,Scattered Clouds,250,2013-09-14 21:00:00
3:25 PM,-9999,-9999,N/A,-9999,5.6,WNW,9.2,-,N/A,,Light Drizzle,290,2013-09-14 21:25:00
4:00 PM,82.4,75.2,79,29.71,5.6,West,6.9,-,N/A,Rain,Rain,270,2013-09-14 22:00:00
5:00 PM,82.4,73.4,74,29.71,6.2,West,6.9,-,N/A,,Scattered Clouds,260,2013-09-14 23:00:00
6:00 PM,80.6,75.2,84,29.74,6.2,ESE,6.9,-,N/A,,Scattered Clouds,110,2013-09-15 00:00:00
7:00 PM,78.8,77.0,94,29.77,5.0,Calm,Calm,-,N/A,Rain-Thunderstorm,Light Thunderstorms and Rain,0,2013-09-15 01:00:00
8:00 PM,78.8,77.0,94,29.80,5.0,Calm,Calm,-,N/A,,Drizzle,0,2013-09-15 02:00:00
9:00 PM,78.8,77.0,94,29.80,4.3,Calm,Calm,-,N/A,,Drizzle,0,2013-09-15 03:00:00
10:00 PM,78.8,77.0,94,29.83,5.0,ESE,4.6,-,N/A,,Light Drizzle,120,2013-09-15 04:00:00
11:00 PM,78.8,77.0,94,29.80,4.3,Calm,Calm,-,N/A,,Drizzle,0,2013-09-15 05:00:00